Station 46078 (LLNR 1187) - ALBATROSS BANK - 104NM South of Kodiak Is., AK Image indicating link to RSS feed of recent meteorological observations for station 46078


Conditions at 46078 as of
(2:40 am AKDT)
1040 GMT on 07/21/2024:
     

Click on the graph icon in the table below to see a time series plot of the last five days of that observation.

5-day plot - Wind Direction Wind Direction (WDIR):NNE ( 20 deg true )
5-day plot - Wind Speed Wind Speed (WSPD): 13.6 kts
5-day plot - Wind Gust Wind Gust (GST): 17.5 kts
5-day plot - Wave Height Wave Height (WVHT): 4.6 ft
5-day plot - Average Wave Period Average Period (APD): 4.9 sec
5-day plot - Mean Wave Direction Mean Wave Direction (MWD):NNW ( 334 deg true )
5-day plot - Atmospheric Pressure Atmospheric Pressure (PRES):30.09 in
5-day plot - Air Temperature Air Temperature (ATMP): 53.2 °F
5-day plot - Water Temperature Water Temperature (WTMP): 52.7 °F
5-day plot - Dew Point Dew Point (DEWP): 52.7 °F
5-day plot - Wind Chill Wind Chill (CHILL): 48.7 °F
5-day plot - Wind Speed at 10 Meters Wind Speed at 10 meters (WSPD10M): 15.5 kts
5-day plot - Wind Speed at 20 Meters Wind Speed at 20 meters (WSPD20M): 15.5 kts
5-day plot -  Wind Speed, Wind Gust and Atmospheric Pressure Combined plot of Wind Speed, Gust, and Air Pressure
Supplemental Measurements
Highest 1-minute Wind Speed
Time (AKDT)5-day plot - 1-Minute Wind Speed WSPD 5-day plot - 1-Minute Wind Direction WDIR
2:33 am 15.5 kts-
Previous observations
TIME
(AKDT)
5-day plot - Wind Direction
WDIR
 
5-day plot - Wind Speed
WSPD
kts
5-day plot - Wind Gust
GST
kts
5-day plot - Wave Height
WVHT
ft
5-day plot - Dominant Wave Period
DPD
sec
5-day plot - Average Wave Period
APD
sec
5-day plot - Mean Wave Direction
MWD
 
5-day plot - Atmospheric Pressure
PRES
in
5-day plot - Pressure Tendency
PTDY
in
5-day plot - Air Temperature
ATMP
°F
5-day plot - Water Temperature
WTMP
°F
5-day plot - Dew Point
DEWP
°F
5-day plot - Salinity
SAL
psu
5-day plot - Visibility
VIS
nmi
5-day plot - Tide (above MLLW)
TIDE
ft
2024-07-21 02:30 amNNE 15.5 17.5----30.09- 53.2 52.7 52.7---
2024-07-21 02:20 amNNE 13.6 17.5 4.3 64.9 N30.09- 53.4 52.7 52.9---
2024-07-21 02:10 amNNE 13.6 17.5 4.3-4.9 N30.09- 53.4 52.7 52.9---
2024-07-21 02:00 amNNE 15.5 19.4----30.09+0.00 53.4 52.7 52.9---
2024-07-21 01:50 amNNE 13.6 17.5 4.3 64.8NNW30.09- 53.4 52.7 52.9---
2024-07-21 01:40 amNNE 13.6 17.5 4.3-4.8NNW30.09- 53.4 52.7 52.9---
2024-07-21 01:30 amNNE 13.6 17.5----30.09- 53.2 52.7 52.7---
2024-07-21 01:20 amNNE 15.5 17.5 4.3 54.9NNW30.09- 53.2 52.7 52.7---
2024-07-21 01:10 am N 15.5 19.4 4.3-4.9NNW30.09- 53.2 52.7 52.7---
2024-07-21 01:00 am N 13.6 17.5----30.08+0.00 53.4 52.7 52.9---
2024-07-21 12:50 am N 15.5 21.4 3.9 154.7 SE30.09- 53.4 52.7 52.9---
2024-07-21 12:40 am N 13.6 17.5 3.9-4.7 SE30.08- 53.4 52.7 52.9---
2024-07-21 12:30 am N 13.6 17.5----30.08- 53.4 52.7 52.9---
2024-07-21 12:20 am N 13.6 17.5 3.6 54.6 N30.08- 53.4 52.7 52.9---
2024-07-21 12:10 am N 13.6 17.5 3.6-4.6 N30.08- 53.4 52.7 52.9---
2024-07-21 12:00 am N 13.6 17.5----30.08+0.01 53.4 52.7 52.9---
2024-07-20 11:50 pm N 13.6 17.5 3.6 154.5 N30.08- 53.4 52.7 52.9---
2024-07-20 11:40 pm N 13.6 17.5----30.08- 53.4 52.7 52.9---
2024-07-20 11:30 pm N 13.6 17.5----30.09- 53.6 52.7 53.1---
2024-07-20 11:20 pm N 13.6 17.5 3.6 44.3 N30.08- 53.6 52.7 53.1---
2024-07-20 11:10 pm N 13.6 17.5 3.6-4.3 N30.09- 53.6 52.7 53.1---
2024-07-20 11:00 pm N 13.6 17.5----30.09+0.00 53.6 52.7 53.1---
2024-07-20 10:50 pm N 13.6 17.5 3.6 154.4SSE30.09- 53.6 52.7 53.1---
2024-07-20 10:40 pm N 13.6 17.5----30.09- 53.6 52.7 53.1---
2024-07-20 10:30 pm N 15.5 17.5----30.08- 53.8 52.7 53.2---
2024-07-20 10:20 pm N 15.5 19.4 3.3 154.3SSE30.09- 53.8 52.7 53.2---
2024-07-20 10:10 pm N 15.5 17.5 3.3-4.3SSE30.08- 53.8 52.7 53.2---
2024-07-20 10:00 pm N 15.5 19.4----30.08+0.00 53.8 52.7 53.2---
2024-07-20 09:50 pm N 15.5 19.4 3.3 144.7SSE30.08- 53.8 52.7 53.2---
2024-07-20 09:40 pm N 15.5 19.4----30.08- 53.8 52.7 53.2---
2024-07-20 09:30 pm N 13.6 15.5----30.08- 53.8 52.7 53.2---
2024-07-20 09:20 pm N 13.6 15.5 3.3 155.0SSE30.07- 54.0 52.9 53.2---
2024-07-20 09:10 pm N 11.7 15.5 3.3-5.0SSE30.07- 54.0 52.9 53.2---
2024-07-20 09:00 pm N 11.7 15.5----30.07-0.01 54.0 52.9 53.2---
2024-07-20 08:50 pm N 11.7 13.6 3.3 154.9SSW30.08- 54.0 53.1 53.2---
2024-07-20 08:40 pm N 11.7 13.6 3.3-4.9SSW30.08- 54.0 52.9 53.2---
2024-07-20 08:30 pm N 11.7 13.6----30.08- 53.8 52.9 53.1---
2024-07-20 08:20 pm N 9.7 13.6 3.0 154.6SSW30.08- 53.6 52.7 52.9---
2024-07-20 08:10 pm N 9.7 13.6 3.0-4.6SSW30.08- 53.4 52.9 52.5---
2024-07-20 08:00 pm N 11.7 13.6----30.08+0.00 53.4 53.1 52.3---
2024-07-20 07:50 pm N 11.7 15.5 3.0 154.6SSE30.08- 53.4 53.2 52.3---
2024-07-20 07:40 pm N 11.7 15.5----30.09- 53.4 53.2 52.3---
2024-07-20 07:30 pm N 11.7 15.5----30.08- 53.6 53.2 52.5---
2024-07-20 07:20 pm N 11.7 15.5 3.0 155.1 S30.08- 53.8 53.2 52.7---
2024-07-20 07:10 pm N 13.6 15.5 3.0-5.1 S30.08- 53.8 53.2 52.7---
2024-07-20 07:00 pm N 13.6 17.5----30.08-0.01 53.8 53.2 52.7---
2024-07-20 06:50 pm N 13.6 15.5 2.6 154.7NNW30.08- 54.0 53.2 52.9---
2024-07-20 06:40 pm N 13.6 15.5 2.6-4.7NNW30.09- 54.0 53.4 52.9---
2024-07-20 06:30 pm N 13.6 17.5----30.08- 54.0 53.4 52.7---
2024-07-20 06:20 pm N 13.6 15.5 2.6 165.6SSE30.08- 54.0 53.6 52.5---
2024-07-20 06:10 pm N 11.7 15.5 2.6-5.6SSE30.09- 54.1 53.6 52.7---
2024-07-20 06:00 pm N 9.7 13.6----30.09-0.01 54.0 53.6 52.5---
2024-07-20 05:50 pm N 9.7 11.7 2.6 155.8SSW30.09- 54.3 53.6 52.5---
2024-07-20 05:40 pm N 9.7 11.7 2.6-5.8SSW30.09- 54.3 53.6 52.5---
2024-07-20 05:30 pm N 9.7 11.7----30.09- 54.3 53.6 52.5---
2024-07-20 05:20 pmNNW 9.7 13.6 2.6 155.9 S30.09- 54.3 53.6 52.5---
2024-07-20 05:10 pmNNW 9.7 11.7 2.6-5.9 S30.08- 54.3 53.6 52.5---
2024-07-20 05:00 pm NW 9.7 11.7----30.08-0.02 54.3 53.6 52.7---
2024-07-20 04:50 pm NW 7.8 11.7 2.6 156.0 SE30.09- 54.3 53.6 52.9---
2024-07-20 04:40 pm NW 7.8 9.7----30.09- 54.3 53.6 52.9---
2024-07-20 04:30 pm NW 7.8 11.7----30.09- 54.3 53.6 52.9---
2024-07-20 04:20 pm NW 7.8 9.7 2.6 166.3 S30.09- 54.3 53.6 52.9---
2024-07-20 04:10 pm NW 7.8 9.7 2.6-6.3 S30.09- 54.3 53.6 52.9---
2024-07-20 04:00 pm NW 7.8 9.7----30.09-0.01 54.3 53.6 52.9---
2024-07-20 03:50 pmNNW 5.8 7.8 2.6 155.9SSW30.09- 54.3 53.4 52.9---
2024-07-20 03:40 pmNNW 5.8 7.8----30.09- 54.3 53.4 52.9---
2024-07-20 03:10 pm NW 5.8 7.8 3.0-5.9 S30.09- 54.5 53.6 53.1---
2024-07-20 03:00 pm NW 5.8 7.8----30.09+0.00 54.5 53.6 52.7---
2024-07-20 02:50 pmNNW 5.8 7.8 3.0 155.9 S30.09- 54.5 53.6 52.7---
2024-07-20 02:40 pm NW 5.8 7.8 3.0-5.9 S30.09- 54.7 53.6 52.9---
2024-07-20 02:30 pm NW 5.8 7.8----30.09- 54.7 53.6 52.9---
2024-07-20 02:20 pmNNW 5.8 7.8 3.0 155.7SSE30.09- 54.7 53.6 52.9---
2024-07-20 02:10 pmNNW 5.8 7.8 3.0-5.7SSE30.10- 54.5 53.4 52.7---
2024-07-20 02:00 pm NW 5.8 7.8----30.10+0.00 54.5 53.4 52.7---
2024-07-20 01:50 pm NW 5.8 7.8 3.0 166.2 S30.09- 54.5 53.2 52.7---
2024-07-20 01:40 pm NW 5.8 9.7----30.10- 54.3 53.4 52.7---
2024-07-20 01:30 pm NW 5.8 7.8----30.10- 54.3 53.2 52.7---
2024-07-20 01:20 pm NW 5.8 9.7 3.0 155.6NNE30.10- 54.3 53.2 52.5---
2024-07-20 01:10 pmNNW 5.8 7.8 3.0-5.6NNE30.10- 54.3 53.4 52.5---
2024-07-20 01:00 pmNNW 5.8 7.8----30.10+0.00 54.1 53.2 52.7---
2024-07-20 12:50 pmNNW 5.8 7.8 3.0 155.8 S30.09- 54.1 53.2 52.7---
2024-07-20 12:40 pmNNW 5.8 7.8----30.10- 54.1 53.4 52.7---
2024-07-20 12:30 pmNNW 5.8 7.8----30.10- 54.1 53.2 52.7---
2024-07-20 12:20 pmNNW 5.8 7.8 3.0 165.8 S30.10- 54.1 53.2 52.7---
2024-07-20 12:10 pmNNW 5.8 7.8 3.0-5.8 S30.10- 54.0 53.2 52.5---
2024-07-20 12:00 pmNNW 5.8 7.8----30.10-0.01 54.0 53.2 52.5---
2024-07-20 11:50 amNNW 5.8 7.8 3.0 155.9SSE30.10- 53.8 53.1 52.7---
2024-07-20 11:40 amNNW 5.8 7.8 3.0-5.9SSE30.10- 53.8 53.1 52.7---
2024-07-20 11:30 amNNW 5.8 7.8----30.10- 53.8 53.1 52.7---
2024-07-20 11:20 amNNW 5.8 7.8 3.3 166.1 S30.10- 53.8 53.1 52.7---
2024-07-20 11:10 amNNW 5.8 7.8 3.3-6.1 S30.11- 53.8 53.1 52.7---
2024-07-20 11:00 amNNW 5.8 7.8----30.11-0.01 53.8 53.1 52.7---
2024-07-20 10:50 amNNW 5.8 7.8 3.0 165.8SSE30.11- 53.6 53.1 52.3---
2024-07-20 10:40 amNNW 7.8 9.7 3.0-5.8SSE30.10- 53.6 52.9 52.2---
2024-07-20 10:30 amNNW 7.8 9.7----30.10- 53.6 52.9 52.2---
2024-07-20 10:20 amNNW 7.8 9.7 3.0 165.9 SE30.10- 53.6 52.9 52.2---
2024-07-20 10:10 amNNW 5.8 7.8 3.0-5.9 SE30.11- 53.6 52.9 52.2---
2024-07-20 10:00 amNNW 7.8 7.8----30.11-0.01 53.6 52.9 52.2---
2024-07-20 09:50 am NW 5.8 7.8 3.0 165.6SSE30.11- 53.6 52.7 52.2---
2024-07-20 09:40 am NW 5.8 7.8 3.0-5.6SSE30.11- 53.8 52.7 52.3---
2024-07-20 09:30 am NW 5.8 7.8----30.11- 53.6 52.7 52.2---
2024-07-20 09:20 am NW 5.8 7.8 3.3 165.8 S30.11- 53.6 52.7 52.2---
2024-07-20 09:10 am NW 5.8 7.8 3.3-5.8 S30.11- 53.6 52.7 52.2---
2024-07-20 09:00 am NW 5.8 7.8----30.11-0.01 53.6 52.7 52.2---
2024-07-20 08:50 am NW 5.8 7.8 3.6 155.8 SW30.11- 53.6 52.7 52.2---
2024-07-20 08:40 am NW 5.8 7.8 3.6-5.8 SW30.11- 53.6 52.7 52.2---
2024-07-20 08:30 amWNW 5.8 7.8----30.11- 53.4 52.5 52.0---
2024-07-20 08:20 am NW 5.8 7.8 3.3 75.4 S30.11- 53.6 52.5 52.2---
2024-07-20 08:10 amWNW 7.8 9.7 3.3-5.4 S30.11- 53.4 52.7 52.0---
2024-07-20 08:00 amWNW 5.8 7.8----30.11-0.02 53.4 52.7 52.0---
2024-07-20 07:50 amWNW 5.8 7.8 3.6 165.6SSE30.11- 53.4 52.7 52.0---
2024-07-20 07:40 amWNW 5.8 9.7----30.12- 53.4 52.7 52.0---
2024-07-20 07:30 amWNW 5.8 7.8----30.11- 53.4 52.7 51.8---
2024-07-20 07:20 amWNW 5.8 7.8 3.3 155.5 S30.12- 53.4 52.7 51.6---
2024-07-20 07:10 amWNW 5.8 7.8 3.3-5.5 S30.11- 53.4 52.7 51.6---
2024-07-20 07:00 amWNW 5.8 7.8----30.11-0.02 53.4 52.7 51.6---
2024-07-20 06:50 amWNW 5.8 7.8 3.3 165.5 S30.12- 53.4 52.7 51.6---
2024-07-20 06:40 am NW 5.8 7.8----30.12- 53.4 52.7 51.6---
2024-07-20 06:30 am NW 7.8 7.8----30.12- 53.4 52.7 51.6---
2024-07-20 06:20 amWNW 7.8 9.7 3.3 165.9 S30.12- 53.2 52.7 51.4---
2024-07-20 06:10 amWNW 7.8 9.7 3.3-5.9 S30.12- 53.2 52.7 51.4---
2024-07-20 06:00 amWNW 7.8 9.7----30.13-0.02 53.2 52.7 51.4---
2024-07-20 05:50 amWNW 7.8 9.7 3.0 166.0 S30.13- 53.2 52.7 51.4---
2024-07-20 05:40 amWNW 7.8 11.7 3.0-6.0 S30.13- 53.2 52.7 51.6---
2024-07-20 05:30 amWNW 7.8 9.7----30.13- 53.4 52.7 52.0---
2024-07-20 05:20 am NW 7.8 7.8 3.0 156.2 S30.13- 53.4 52.7 52.0---
2024-07-20 05:10 amWNW 7.8 9.7 3.0-6.2 S30.13- 53.4 52.7 52.0---
2024-07-20 05:00 amWNW 7.8 9.7----30.13-0.02 53.4 52.7 52.0---
2024-07-20 04:50 amWNW 7.8 9.7 3.0 156.3SSW30.13- 53.4 52.7 52.0---
2024-07-20 04:40 amWNW 7.8 9.7----30.13- 53.4 52.7 52.0---
2024-07-20 04:30 amWNW 7.8 11.7----30.13- 53.4 52.7 52.0---
2024-07-20 04:20 amWNW 9.7 11.7 3.0 166.5SSE30.14- 53.4 52.7 52.0---
2024-07-20 04:10 amWNW 9.7 11.7 3.0-6.5SSE30.14- 53.4 52.7 52.0---
2024-07-20 04:00 amWNW 9.7 11.7----30.14-0.03 53.4 52.7 51.8---
2024-07-20 03:50 amWNW 9.7 11.7 3.0 166.6SSW30.14- 53.4- 51.6---
2024-07-20 03:40 amWNW 9.7 11.7----30.14- 53.4 52.7 51.6---
2024-07-20 03:30 amWNW 9.7 11.7----30.15- 53.4 52.7 51.6---
2024-07-20 03:20 amWNW 7.8 9.7 3.0 166.8 S30.15- 53.4 52.7 51.6---
2024-07-20 03:10 amWNW 7.8 9.7 3.0-6.8 S30.15- 53.4 52.7 51.6---
2024-07-20 03:00 amWNW 7.8 9.7----30.15-0.02 53.4 52.7 52.0---
2024-07-20 02:50 amWNW 7.8 9.7 3.0 166.9SSW30.15- 53.4 52.7 51.8---

Detailed Wave Summary
for 46078 as of (2:40 am AKDT)
1040 GMT on 07/21/2024:

These wave data are displayed in rounded times.

     

Click on the graph icon in the table below to see a time series plot of the last five days of that observation.

5-day plot - Significant Wave Height Significant Wave Height (WVHT): 4.6 ft
5-day plot - Wave Steepness Wave Steepness (STEEPNESS):VERY_STEEP
5-day plot - Average Wave Period Average Wave Period (APD): 4.9 sec
Previous observations
TIME
(AKDT)
5-day plot - Wave Height
WVHT
ft
5-day plot - Swell Height
SwH
ft
5-day plot - Swell Period
SwP
sec
5-day plot - Swell Direction
SwD
 
5-day plot - Wind Wave Height
WWH
ft
5-day plot - Wind Wave Period
WWP
sec
5-day plot - Wind Wave Direction
WWD
 
5-day plot - Wave Steepness
STEEPNESS
 
5-day plot - Average Wave Period
APD
sec
2024-07-21 02:10 am 4.3------ STEEP 4.9
2024-07-21 01:40 am 4.3------ STEEP 4.8
2024-07-21 01:10 am 4.3------VERY_STEEP 4.9
2024-07-21 12:40 am 3.9------ N/A 4.7
2024-07-21 12:10 am 3.6------VERY_STEEP 4.6
2024-07-20 11:40 pm 3.6------ N/A 4.5
2024-07-20 11:10 pm 3.6------VERY_STEEP 4.3
2024-07-20 10:40 pm 3.6------ N/A 4.4
2024-07-20 10:10 pm 3.3------ N/A 4.3
2024-07-20 09:40 pm 3.3------ N/A 4.7
2024-07-20 09:10 pm 3.3------ N/A 5.0
2024-07-20 08:40 pm 3.3------ N/A 4.9
2024-07-20 08:10 pm 3.0------ N/A 4.6
2024-07-20 07:40 pm 3.0------ N/A 4.6
2024-07-20 07:10 pm 3.0------ N/A 5.1
2024-07-20 06:40 pm 2.6------ N/A 4.7
2024-07-20 06:10 pm 2.6------ N/A 5.6
2024-07-20 05:40 pm 2.6------ N/A 5.8
2024-07-20 05:10 pm 2.6------ N/A 5.9
2024-07-20 04:40 pm 2.6------ N/A 6.0
2024-07-20 04:10 pm 2.6------ N/A 6.3
2024-07-20 03:40 pm 2.6------ N/A 5.9
2024-07-20 03:10 pm 3.0------ N/A 5.9
2024-07-20 02:40 pm 3.0------ N/A 5.9
2024-07-20 02:10 pm 3.0------ N/A 5.7
2024-07-20 01:40 pm 3.0------ N/A 6.2
2024-07-20 01:10 pm 3.0------ N/A 5.6
2024-07-20 12:40 pm 3.0------ N/A 5.8
2024-07-20 12:10 pm 3.0------ N/A 5.8
2024-07-20 11:40 am 3.0------ N/A 5.9
2024-07-20 11:10 am 3.3------ N/A 6.1
2024-07-20 10:40 am 3.0------ N/A 5.8
2024-07-20 10:10 am 3.0------ N/A 5.9
2024-07-20 09:40 am 3.0------ N/A 5.6
2024-07-20 09:10 am 3.3------ N/A 5.8
2024-07-20 08:40 am 3.6------ N/A 5.8
2024-07-20 08:10 am 3.3------ AVERAGE 5.4
2024-07-20 07:40 am 3.6------ N/A 5.6
2024-07-20 07:10 am 3.3------ N/A 5.5
2024-07-20 06:40 am 3.3------ N/A 5.5
2024-07-20 06:10 am 3.3------ N/A 5.9
2024-07-20 05:40 am 3.0------ N/A 6.0
2024-07-20 05:10 am 3.0------ N/A 6.2
2024-07-20 04:40 am 3.0------ N/A 6.3
2024-07-20 04:10 am 3.0------ N/A 6.5
2024-07-20 03:40 am 3.0------ N/A 6.6
2024-07-20 03:10 am 3.0------ N/A 6.8

Plot of wave energy versus frequency (and period)